Farmville, VA

4:23 AM EDT on September 20, 2019 (GMT -0400)
Farmville Regional

Weather History for KFVX - August, 2019

Change the Weather History Date:

Tuesday, August 20, 2019

  Actual Average Record
Temperature  
Mean Temperature 82 °F -  
Max Temperature 95 °F 85 °F 103 °F (1983)
Min Temperature 68 °F 63 °F 45 °F (1943)
Cooling Degree Days 16    
Growing Degree Days 32 (Base 50)    
Moisture  
Dew Point 70 °F    
Average Humidity 75    
Maximum Humidity 99    
Minimum Humidity 46    
Precipitation  
Precipitation 0.01 in - - ()
Sea Level Pressure  
Sea Level Pressure 30.06 in    
Wind  
Wind Speed 1 mph ()    
Max Wind Speed 10 mph    
Max Gust Speed 16 mph    
Visibility 9.9 miles    
Events Rain , Thunderstorm    
Averages and records for this station are not official NWS values.
T = Trace of Precipitation, MM = Missing Value Source: Averaged Metar Reports

Daily Weather History Graph

Daily Weather History Graph

Search for Another Location

Airport or City:

Astronomy

Aug. 20, 2019 Rise Set
Actual Time 6:34 AM EDT 7:59 PM EDT
Civil Twilight 6:06 AM EDT 8:27 PM EDT
Nautical Twilight 5:33 AM EDT 8:59 PM EDT
Astronomical Twilight 4:59 AM EDT 9:34 PM EDT
Moon 10:53 PM EDT 11:04 AM EDT
Length of Visible Light 14h 20m
Length of Day
13h 25m
Waning Gibbous, 78% of the Moon is Illuminated
Aug 20
Waning Gibbous
Aug 23
Last Quarter
Aug 30
New
Sep 5
First Quarter
Sep 14
Full

Hourly Weather History & Observations

Time (EDT) Temp. Heat Index Dew Point Humidity Pressure Visibility Wind Dir Wind Speed Gust Speed Precip Events Conditions
12:15 AM 75.0 °F - 69.8 °F 84% 30.06 in 10.0 mi Calm Calm - N/A   Clear
12:35 AM 74.3 °F - 69.8 °F 86% 30.05 in 10.0 mi Calm Calm - N/A   Clear
12:55 AM 73.4 °F - 69.8 °F 88% 30.06 in 10.0 mi Calm Calm - N/A   Clear
1:15 AM 72.7 °F - 69.8 °F 91% 30.06 in 10.0 mi Calm Calm - N/A   Clear
1:35 AM 72.3 °F - 69.6 °F 91% 30.05 in 10.0 mi Calm Calm - N/A   Clear
1:55 AM 72.5 °F - 69.8 °F 91% 30.05 in 10.0 mi Calm Calm - N/A   Clear
2:15 AM 71.6 °F - 69.8 °F 94% 30.05 in 10.0 mi Calm Calm - N/A   Clear
2:35 AM 70.5 °F - 68.9 °F 95% 30.04 in 10.0 mi Calm Calm - N/A   Clear
2:55 AM 71.2 °F - 69.8 °F 95% 30.05 in 10.0 mi Calm Calm - N/A   Clear
3:35 AM 70.5 °F - 69.6 °F 97% 30.05 in 10.0 mi SSW 3.5 mph - N/A   Clear
3:55 AM 70.7 °F - 69.8 °F 97% 30.05 in 10.0 mi SW 3.5 mph - N/A   Clear
4:15 AM 70.3 °F - 69.4 °F 97% 30.05 in 10.0 mi SSW 3.5 mph - N/A   Clear
4:55 AM 69.8 °F - 68.9 °F 97% 30.06 in 10.0 mi Calm Calm - N/A   Clear
5:15 AM 69.8 °F - 68.7 °F 96% 30.06 in 10.0 mi Calm Calm - N/A   Clear
5:35 AM 69.8 °F - 68.9 °F 97% 30.07 in 10.0 mi Calm Calm - N/A   Clear
5:55 AM 69.8 °F - 68.9 °F 97% 30.07 in 10.0 mi Calm Calm - N/A   Clear
6:15 AM 69.3 °F - 68.9 °F 99% 30.08 in 10.0 mi SSW 3.5 mph - N/A   Clear
6:35 AM 69.1 °F - 68.4 °F 98% 30.08 in 7.0 mi Calm Calm - N/A   Clear
6:55 AM 68.9 °F - 68.4 °F 98% 30.08 in 7.0 mi Calm Calm - N/A   Clear
7:15 AM 71.2 °F - 69.4 °F 94% 30.09 in 10.0 mi Calm Calm - N/A   Clear
7:35 AM 72.9 °F - 69.8 °F 90% 30.09 in 10.0 mi Calm Calm - N/A   Clear
7:55 AM 72.0 °F - 70.0 °F 93% 30.10 in 10.0 mi Calm Calm - N/A   Clear
8:15 AM 73.6 °F - 70.3 °F 90% 30.10 in 10.0 mi Calm Calm - N/A   Clear
8:35 AM 75.6 °F - 70.9 °F 85% 30.09 in 10.0 mi Calm Calm - N/A   Clear
9:15 AM 81.0 °F 85.2 °F 71.8 °F 74% 30.09 in 10.0 mi Calm Calm - N/A   Clear
9:35 AM 83.5 °F 88.5 °F 71.4 °F 67% 30.09 in 10.0 mi Calm Calm - N/A   Clear
9:55 AM 85.3 °F 90.8 °F 71.4 °F 63% 30.09 in 10.0 mi North 4.6 mph - N/A   Clear
10:15 AM 87.3 °F 93.2 °F 71.2 °F 59% 30.09 in 10.0 mi Calm Calm - N/A   Clear
10:35 AM 87.6 °F 93.1 °F 70.9 °F 57% 30.10 in 10.0 mi NE 4.6 mph - N/A   Clear
10:50 AM 89.8 °F 96.0 °F 70.9 °F 54% 30.10 in 10.0 mi North 3.5 mph - N/A   Clear
11:15 AM 90.9 °F 96.2 °F 70.0 °F 50% 30.10 in 10.0 mi ENE 4.6 mph - N/A   Clear
11:35 AM 90.5 °F 96.0 °F 70.2 °F 51% 30.09 in 10.0 mi NE 3.5 mph - N/A   Clear
11:55 AM 91.0 °F 97.6 °F 71.1 °F 52% 30.09 in 10.0 mi South 3.5 mph - N/A   Clear
12:15 PM 92.7 °F 98.8 °F 70.5 °F 48% 30.09 in 10.0 mi Calm Calm - N/A   Clear
12:35 PM 90.3 °F 97.2 °F 71.8 °F 54% 30.08 in 10.0 mi South 4.6 mph - N/A   Clear
12:55 PM 91.2 °F 98.0 °F 71.4 °F 52% 30.08 in 10.0 mi South 6.9 mph - N/A   Clear
1:15 PM 90.9 °F 95.8 °F 69.1 °F 49% 30.08 in 10.0 mi Calm Calm - N/A   Clear
1:35 PM 91.8 °F 99.1 °F 71.8 °F 52% 30.07 in 10.0 mi East 4.6 mph - N/A   Clear
1:55 PM 91.9 °F 99.0 °F 71.4 °F 51% 30.06 in 10.0 mi Calm Calm - N/A   Scattered Clouds
2:15 PM 93.4 °F 100.3 °F 70.9 °F 48% 30.05 in 10.0 mi South 9.2 mph - N/A   Scattered Clouds
2:35 PM 94.8 °F 102.8 °F 71.8 °F 47% 30.04 in 10.0 mi South 10.4 mph 16.1 mph N/A   Scattered Clouds
2:55 PM 94.5 °F 101.4 °F 71.1 °F 46% 30.04 in 10.0 mi SW 9.2 mph - N/A Thunderstorm Scattered Clouds
3:15 PM 95.0 °F 102.5 °F 71.2 °F 46% 30.04 in 10.0 mi South 5.8 mph 16.1 mph N/A Thunderstorm Clear
3:35 PM 95.2 °F 102.9 °F 71.4 °F 46% 30.03 in 10.0 mi SSW 8.1 mph - N/A Thunderstorm Scattered Clouds
3:55 PM 92.8 °F 98.6 °F 70.0 °F 47% 30.02 in 10.0 mi SSW 10.4 mph - N/A   Mostly Cloudy
4:15 PM 85.8 °F 94.2 °F 74.7 °F 69% 30.03 in 7.0 mi ENE 5.8 mph - 0.01 in Rain , Thunderstorm Thunderstorms and Rain
4:35 PM 85.1 °F 92.9 °F 74.3 °F 70% 30.04 in 10.0 mi North 6.9 mph - 0.01 in Rain , Thunderstorm Light Thunderstorms and Rain
4:55 PM 84.4 °F 88.2 °F 68.9 °F 60% 30.03 in 10.0 mi NNE 6.9 mph - 0.01 in Thunderstorm Overcast
5:15 PM 83.5 °F 87.4 °F 69.8 °F 63% 30.03 in 10.0 mi NNE 3.5 mph - N/A   Scattered Clouds
5:35 PM 85.3 °F 90.4 °F 70.9 °F 62% 30.02 in 10.0 mi Calm Calm - N/A   Clear
5:55 PM 83.5 °F 88.2 °F 71.1 °F 66% 30.02 in 10.0 mi Calm Calm - N/A   Scattered Clouds
6:10 PM 84.0 °F 89.3 °F 71.8 °F 66% 30.02 in 10.0 mi Calm Calm - N/A   Scattered Clouds
6:30 PM 83.8 °F 90.8 °F 73.9 °F 72% 30.02 in 10.0 mi SSW 3.5 mph - N/A Thunderstorm Mostly Cloudy
6:55 PM 81.5 °F 83.1 °F 64.6 °F 56% 30.04 in 10.0 mi South 6.9 mph - N/A Thunderstorm Thunderstorm
7:15 PM 79.5 °F - 65.7 °F 62% 30.04 in 10.0 mi Calm Calm - N/A Thunderstorm Thunderstorm
7:35 PM 79.3 °F - 67.1 °F 66% 30.04 in 10.0 mi Calm Calm - N/A   Clear
7:55 PM 76.5 °F - 67.6 °F 74% 30.05 in 10.0 mi Calm Calm - N/A   Clear
8:15 PM 75.2 °F - 68.2 °F 79% 30.05 in 10.0 mi Calm Calm - N/A   Clear
8:35 PM 75.6 °F - 68.0 °F 77% 30.05 in 10.0 mi Calm Calm - N/A   Clear
8:55 PM 73.8 °F - 68.5 °F 84% 30.04 in 10.0 mi Calm Calm - N/A   Clear
9:15 PM 73.2 °F - 69.3 °F 87% 30.05 in 10.0 mi SSW 3.5 mph - N/A   Clear
9:35 PM 73.6 °F - 69.4 °F 87% 30.04 in 10.0 mi Calm Calm - N/A   Clear
9:55 PM 72.7 °F - 69.8 °F 91% 30.05 in 10.0 mi Calm Calm - N/A   Clear
10:15 PM 72.7 °F - 70.0 °F 91% 30.06 in 10.0 mi Calm Calm - N/A   Clear
10:35 PM 72.5 °F - 70.2 °F 92% 30.06 in 10.0 mi Calm Calm - N/A   Clear
10:55 PM 72.7 °F - 70.3 °F 92% 30.06 in 10.0 mi Calm Calm - N/A   Clear
11:15 PM 73.4 °F - 70.7 °F 91% 30.07 in 10.0 mi Calm Calm - N/A   Clear
11:35 PM 73.4 °F - 70.9 °F 92% 30.07 in 10.0 mi Calm Calm - N/A   Clear
11:55 PM 73.2 °F - 71.1 °F 93% 30.08 in 10.0 mi Calm Calm - N/A   Clear